[[{"header":{"parameterUnit":"m.s-1","parameterCategory":1,"la1":30.2991,"la2":30.254,"lo1":-89.0895,"lo2":-89.0444,"dy":0.0017,"dx":0.0017,"nx":28,"ny":28,"refTime":"2024-07-30T21:00:00:Z","depth":0,"parameterNumber":2,"parameterNumberName":"U-component_of_WINDS"},"data":[0,0,0,0,0,0,0,0,0,0,0,0,0,0,0,0,0,0,0,0,0,0,0,0,0,0,0,0,0,0,0,0,0,0,0,0,0,0,0,0,0,0,0,0,0,0,0,0,0,0,0,0,0,0,0,0,0,0,2.42,2.4201,0,2.4319,2.432,2.4321,2.4322,2.432,2.4319,2.4317,2.4441,2.4445,2.445,0,0,0,0,0,0,0,0,0,0,0,0,0,2.3973,2.3978,2.4199,2.4201,2.4203,2.4318,2.432,2.4322,2.4322,2.432,2.4318,2.4316,2.4439,2.4445,2.445,0,0,0,0,0,0,0,0,0,0,0,0,0,2.408,2.3979,2.4199,2.4217,2.4219,2.4318,2.432,2.4322,2.4322,2.432,2.4318,2.4316,2.4437,2.4444,2.4451,2.4541,0,0,2.4473,2.4476,0,0,0,0,0,0,0,0,2.4074,2.4088,2.4213,2.4216,2.4219,2.4303,2.4286,2.4396,2.4323,2.4283,2.4317,2.4314,2.4397,2.4407,2.4434,2.4547,2.4552,2.4473,2.4478,2.4481,2.4483,0,0,0,0,0,0,0,2.4067,2.4083,2.4247,2.4214,2.4218,2.4219,2.4231,2.4306,2.4352,2.4287,2.4287,2.4301,2.4398,2.4428,2.4437,2.4554,2.4473,2.4479,2.4484,2.4487,2.4745,2.4747,0,0,0,0,0,0,2.4056,2.4077,2.4243,2.425,2.4139,2.4225,2.4239,2.4278,2.4351,2.436,2.4303,2.43,2.4417,2.4429,2.4442,2.455,2.4481,2.4487,2.4491,2.4742,2.4746,2.4748,0,0,0,0,0,0,2.4051,2.407,2.4238,2.4164,2.4185,2.4231,2.4275,2.4282,2.4311,2.4363,2.4371,2.4325,2.4415,2.4432,2.4516,2.4555,2.449,2.4497,2.4739,2.4743,2.4747,2.4769,0,0,0,0,0,0,2.4044,2.4069,2.4103,2.4165,2.4189,2.431,2.4278,2.4286,2.4323,2.4322,2.4386,2.4394,2.4415,2.4505,2.4523,2.4563,2.4502,2.4736,2.4741,2.4746,2.4765,2.4773,2.4781,0,0,0,0,0,2.4036,2.4105,2.4105,2.4125,2.4233,2.4312,2.4326,2.4348,2.4327,2.4361,2.4395,2.4392,2.4548,2.4514,2.4534,2.4577,2.4734,2.474,2.4745,2.4762,2.4772,2.478,0,0,0,0,0,0,2.4047,2.4113,2.4114,2.4204,2.4253,2.4312,2.4357,2.4359,2.4414,2.441,2.4436,2.445,2.4534,2.4564,2.4525,2.4667,2.4638,2.4648,2.4644,2.4654,2.4661,2.4651,2.4508,0,0,0,0,0,2.406,2.4118,2.4173,2.4248,2.4272,2.431,2.4346,2.4359,2.441,2.443,2.447,2.452,2.458,2.4619,2.4677,2.477,2.4784,2.481,2.4818,2.4824,2.4831,2.4882,2.4893,2.4768,2.4768,2.4768,0,0,2.4087,2.4131,2.4166,2.4251,2.429,2.435,2.4328,2.4392,2.4437,2.444,2.4521,2.4552,2.461,2.4698,2.474,2.4726,2.4869,2.4831,2.4835,2.484,2.4889,2.4901,2.4911,2.4772,2.4771,2.477,0,0,2.4167,2.4206,2.4272,2.4311,2.437,2.4395,2.4411,2.4471,2.4491,2.4573,2.4577,2.4631,2.4734,2.4775,2.4809,2.4904,2.4904,2.4923,2.4962,2.5011,2.5021,2.5029,2.5062,2.5073,2.4931,2.4931,2.4931,0,2.4193,2.4283,2.4306,2.437,2.4407,2.4414,2.448,2.4518,2.4593,2.4618,2.4603,2.4732,2.4772,2.4869,2.4892,2.4921,2.4939,2.4915,2.5017,2.5027,2.5035,2.5066,2.5079,2.4933,2.4933,2.4933,2.4933,0,2.4312,2.4374,2.4421,2.4492,2.4535,2.46,2.4633,2.4674,2.4684,2.471,2.4793,2.4841,2.4908,2.4933,2.4944,2.5032,2.5022,2.5012,2.4983,2.5048,2.5078,2.509,2.4936,2.4935,2.4934,2.4934,0,0,2.4399,2.4483,2.45,2.4532,2.4598,2.4647,2.4713,2.4778,2.4812,2.4865,2.492,2.5007,2.4998,2.5037,2.5052,2.5095,2.5166,2.508,2.5081,2.5092,2.5265,2.527,2.5284,2.5167,2.5169,2.5171,2.5259,0,2.4485,2.4601,2.4623,2.4724,2.4782,2.4789,2.4846,2.4893,2.492,2.4973,2.5003,2.5064,2.5048,2.5072,2.5115,2.5148,2.52,2.5142,2.5217,2.522,2.52,2.5299,2.5306,2.5386,2.5271,2.5273,2.5275,0,2.4599,2.4653,2.4759,2.4817,2.4842,2.4893,2.4954,2.5006,2.5059,2.5075,2.5119,2.5129,2.5198,2.5167,2.5262,2.5222,2.5254,2.5276,2.5279,2.5285,2.5249,2.5306,2.5413,2.5424,2.5293,2.5292,2.5291,0,2.4649,2.475,2.4826,2.4853,2.4923,2.4959,2.4989,2.5041,2.5078,2.5133,2.5157,2.522,2.5253,2.5301,2.5328,2.5303,2.542,2.5392,2.5435,2.5434,2.5457,2.5455,2.5569,2.5482,2.5482,2.5482,2.5481,0,2.4741,2.4805,2.4849,2.4896,2.4968,2.4994,2.5065,2.5096,2.5141,2.5194,2.5205,2.5254,2.5288,2.5342,2.5364,2.5438,2.5454,2.5469,2.5473,2.5467,2.5464,2.5487,2.5481,2.5485,2.5484,2.5484,2.5483,0,2.4808,2.4841,2.4924,2.4984,2.5,2.5051,2.5101,2.5147,2.5175,2.5241,2.5258,2.5302,2.5366,2.5398,2.5479,2.5493,2.5576,2.5579,2.5558,2.5559,2.56,2.5595,2.573,2.5748,2.5651,2.5652,2.5653,0,2.4863,2.4913,2.4977,2.5013,2.5045,2.5103,2.5141,2.517,2.5209,2.5274,2.5312,2.5376,2.5429,2.5532,2.5571,2.5632,2.5635,2.5678,2.5644,2.5635,2.5633,2.5628,2.5633,2.5683,2.5684,2.5685,2.5685,0,2.4956,2.497,2.5025,2.5086,2.5131,2.5181,2.5229,2.5258,2.5295,2.5339,2.5404,2.5445,2.5527,2.5591,2.5655,2.5687,2.5692,2.5696,2.5709,2.5701,2.5686,2.5693,2.5572,2.5692,2.5691,2.5691,2.5691,2.569,2.5018,2.5062,2.5114,2.5175,2.5214,2.526,2.5305,2.5338,2.5393,2.5461,2.5476,2.5545,2.5597,2.5684,2.5718,2.5772,2.5763,2.5782,2.5787,2.579,2.5791,2.5679,2.5785,2.5784,2.5784,2.5784,2.5784,0,2.5109,2.5143,2.5199,2.5267,2.5315,2.5316,2.537,2.5409,2.547,2.5518,2.557,2.5646,2.5708,2.5752,2.5815,2.585,2.5854,2.5865,2.5862,2.5869,2.5797,2.5778,2.5861,2.5861,2.5861,2.5861,2.5861,2.5861,2.5162,2.5236,2.5256,2.535,2.5384,2.5451,2.5482,2.5524,2.5562,2.5645,2.5697,2.5725,2.5772,2.5839,2.5895,2.5907,2.5929,2.594,2.5951,2.5882,2.5874,2.5866,2.5849,2.5945,2.5945,2.6018,2.6019,2.602]},{"header":{"parameterUnit":"m.s-1","parameterCategory":1,"la1":30.2991,"la2":30.254,"lo1":-89.0895,"lo2":-89.0444,"dy":0.0017,"dx":0.0017,"nx":28,"ny":28,"refTime":"2024-07-30T21:00:00:Z","depth":0,"parameterNumber":3,"parameterNumberName":"V-component_of_WINDS"},"data":[0,0,0,0,0,0,0,0,0,0,0,0,0,0,0,0,0,0,0,0,0,0,0,0,0,0,0,0,0,0,0,0,0,0,0,0,0,0,0,0,0,0,0,0,0,0,0,0,0,0,0,0,0,0,0,0,0,0,4.3622,4.3622,0,4.3653,4.3653,4.3653,4.3614,4.3613,4.3611,4.361,4.3637,4.3639,4.3641,0,0,0,0,0,0,0,0,0,0,0,0,0,4.3524,4.3526,4.3622,4.3622,4.3623,4.3653,4.3653,4.3653,4.3614,4.3613,4.3611,4.3609,4.3636,4.3639,4.3641,0,0,0,0,0,0,0,0,0,0,0,0,0,4.3562,4.3527,4.3622,4.3607,4.3606,4.3652,4.3653,4.3653,4.3615,4.3613,4.361,4.3609,4.3636,4.3639,4.3642,4.3703,0,0,4.3651,4.3652,0,0,0,0,0,0,0,0,4.356,4.3565,4.3609,4.3608,4.3607,4.3627,4.3628,4.367,4.3615,4.3611,4.361,4.3607,4.3635,4.3638,4.3649,4.3704,4.3705,4.3651,4.3653,4.3654,4.3655,0,0,0,0,0,0,0,4.3557,4.3564,4.3634,4.3609,4.3608,4.3597,4.36,4.3636,4.3635,4.3611,4.3609,4.3613,4.3634,4.3646,4.3649,4.3706,4.3651,4.3654,4.3656,4.3657,4.3811,4.3813,0,0,0,0,0,0,4.3557,4.3562,4.3633,4.3635,4.3578,4.36,4.3604,4.3623,4.3634,4.3634,4.3615,4.3611,4.3642,4.3645,4.365,4.3721,4.3654,4.3657,4.3659,4.3808,4.3811,4.3814,0,0,0,0,0,0,4.3555,4.3564,4.3632,4.3598,4.3605,4.3604,4.3626,4.3625,4.3636,4.3637,4.3636,4.3627,4.364,4.3645,4.369,4.3721,4.3659,4.3661,4.3806,4.3809,4.3812,4.3864,0,0,0,0,0,0,4.3552,4.3563,4.3588,4.3599,4.3607,4.3673,4.3628,4.3627,4.3642,4.3637,4.3648,4.3648,4.3639,4.3685,4.3693,4.3724,4.3664,4.3803,4.3807,4.3811,4.386,4.3869,4.3877,0,0,0,0,0,4.3549,4.3601,4.3589,4.3598,4.3639,4.3675,4.368,4.367,4.3645,4.3668,4.3668,4.3647,4.3717,4.369,4.3698,4.3731,4.3801,4.3806,4.3811,4.3856,4.3867,4.3877,0,0,0,0,0,0,4.3593,4.3602,4.3589,4.3647,4.366,4.3668,4.3698,4.3682,4.3703,4.3697,4.3682,4.3685,4.3732,4.3736,4.3707,4.379,4.3754,4.3761,4.3786,4.3796,4.3805,4.3802,4.3666,0,0,0,0,0,4.3609,4.364,4.3645,4.3695,4.3703,4.37,4.3715,4.3706,4.3719,4.3724,4.3728,4.374,4.3764,4.3781,4.3803,4.386,4.3861,4.3886,4.3895,4.3902,4.3908,4.3936,4.3947,4.383,4.383,4.383,0,0,4.3643,4.3652,4.3672,4.3704,4.3714,4.3744,4.3705,4.3738,4.376,4.3729,4.3771,4.3774,4.3786,4.3837,4.3859,4.3842,4.394,4.3908,4.3914,4.3916,4.3943,4.3954,4.3964,4.3834,4.3833,4.3832,0,0,4.372,4.3731,4.3773,4.3783,4.3799,4.3796,4.3806,4.3816,4.3817,4.3859,4.3836,4.3861,4.3904,4.3913,4.3923,4.4002,4.3983,4.401,4.4054,4.4082,4.4092,4.41,4.4126,4.4136,4.4016,4.4016,4.4016,0,4.376,4.3806,4.3796,4.3831,4.3845,4.3819,4.386,4.387,4.3892,4.3901,4.3881,4.3933,4.394,4.3991,4.4011,4.4021,4.403,4.4008,4.4091,4.4099,4.4107,4.4132,4.4142,4.4019,4.4019,4.4018,4.4018,0,4.3853,4.3885,4.3917,4.3939,4.3957,4.3995,4.3988,4.4006,4.3996,4.3994,4.4036,4.4044,4.4066,4.4078,4.4068,4.4127,4.4116,4.4094,4.4058,4.4121,4.4145,4.4154,4.4024,4.4022,4.4022,4.4021,0,0,4.3959,4.3975,4.3986,4.3995,4.401,4.4033,4.4069,4.4093,4.4108,4.4123,4.4151,4.4188,4.4167,4.4179,4.4169,4.4194,4.4254,4.4169,4.4169,4.4183,4.4318,4.4334,4.4346,4.4241,4.4243,4.4245,4.4317,0,4.4035,4.4099,4.409,4.415,4.4178,4.4153,4.4184,4.4195,4.4194,4.4217,4.4215,4.4241,4.4213,4.4219,4.4243,4.4242,4.4281,4.4236,4.4266,4.4267,4.4263,4.4358,4.4375,4.4443,4.4326,4.4328,4.4329,0,4.4132,4.4152,4.4215,4.4224,4.4235,4.4263,4.4283,4.4305,4.4317,4.4314,4.4327,4.4312,4.4346,4.431,4.4355,4.4325,4.4336,4.4337,4.434,4.4341,4.4301,4.4361,4.4465,4.4474,4.4343,4.4342,4.4341,0,4.4201,4.4243,4.4286,4.4295,4.4306,4.4326,4.4332,4.4341,4.4355,4.4372,4.438,4.4401,4.4411,4.4427,4.4417,4.4392,4.4463,4.4427,4.446,4.4461,4.4476,4.4475,4.4582,4.4485,4.4485,4.4485,4.4485,0,4.4286,4.4326,4.4317,4.4343,4.4386,4.4374,4.4416,4.4418,4.4426,4.4451,4.4431,4.4454,4.4441,4.4463,4.4455,4.4493,4.4498,4.4496,4.4493,4.4497,4.4497,4.4503,4.4498,4.4487,4.4487,4.4486,4.4486,0,4.437,4.4366,4.4411,4.4418,4.4421,4.4452,4.4457,4.4481,4.4478,4.451,4.4516,4.4512,4.4537,4.4529,4.4555,4.455,4.4597,4.4589,4.4594,4.4591,4.4625,4.4622,4.4739,4.4753,4.4649,4.465,4.465,0,4.4424,4.4454,4.4464,4.448,4.4487,4.4513,4.4527,4.4516,4.4532,4.4546,4.4567,4.4591,4.4608,4.4648,4.4647,4.4666,4.4657,4.4697,4.466,4.4663,4.4657,4.4655,4.4657,4.4704,4.4705,4.4706,4.4707,0,4.452,4.4516,4.4539,4.456,4.4578,4.4594,4.4608,4.4621,4.4611,4.4629,4.4654,4.4668,4.4695,4.4717,4.4735,4.4738,4.4721,4.4719,4.4728,4.4731,4.4733,4.4731,4.4613,4.4716,4.4715,4.4715,4.4714,4.4714,4.459,4.4614,4.4625,4.465,4.4659,4.4673,4.4695,4.4695,4.4717,4.4738,4.473,4.4759,4.4768,4.4789,4.4796,4.4817,4.4801,4.4814,4.4817,4.482,4.4824,4.473,4.482,4.482,4.4819,4.4819,4.4819,0,4.4683,4.4689,4.4712,4.4732,4.4751,4.4734,4.4748,4.4765,4.4791,4.4801,4.4819,4.4847,4.4869,4.4869,4.4888,4.4905,4.4897,4.4911,4.4909,4.491,4.4837,4.4828,4.4916,4.4916,4.4916,4.4916,4.4916,4.4916,4.4734,4.4774,4.4772,4.4815,4.482,4.4849,4.4859,4.487,4.4878,4.4911,4.4929,4.4929,4.4935,4.4955,4.4973,4.4972,4.498,4.4996,4.4992,4.4924,4.4915,4.4905,4.4896,4.4998,4.4998,4.5062,4.5063,4.5063]}]]